User: anonymous   Login
Location: Theydon Bois
(51.6750°N, 0.1050°E)
Time: 22:29:39
(UTC+01:00)
Language:

Cosmos 2333 Rocket - Orbit

View from above orbital plane
View from above orbital plane
View from above satellite
View from above satellite

Ground track
Ground track

The orbit data is extracted from the following two-line orbital elements,

1 24298U 96051B   17293.85290631 -.00000098  00000-0 -26583-4 0  9999
2 24298  70.8468 157.2826 0015513 345.1295  14.9367 14.12486994 89561
Epoch (UTC): 20 October 2017 20:28:11
Eccentricity: 0.0015513
inclination: 70.8468°
perigee height: 839 km
apogee height: 862 km
right ascension of ascending node: 157.2826°
argument of perigee: 345.1295°
revolutions per day: 14.12486994
mean anomaly at epoch: 14.9367°
orbit number at epoch: 8956

The dashed part of the orbit path shows where the satellite is in the earth's shadow,  

DLR